Date,TemperatureHighF,TemperatureAvgF,TemperatureLowF,DewpointHighF,DewpointAvgF,DewpointLowF,HumidityHigh,HumidityAvg,HumidityLow,PressureMaxIn,PressureMinIn,WindSpeedMaxMPH,WindSpeedAvgMPH,GustSpeedMaxMPH,PrecipitationSumIn
2013-1-1,39,36,27,31,29,18,81,76,68,29.77,29.60,8,1,10,0.00
2013-1-2,34,26,22,22,18,15,77,69,55,29.94,29.72,10,1,12,0.00
2013-1-3,33,26,20,21,18,14,82,71,55,29.94,29.83,9,0,11,0.00
2013-1-4,38,32,28,26,23,20,75,69,60,29.86,29.74,12,2,16,0.00
2013-1-5,42,33,28,28,23,20,79,69,54,30.07,29.80,10,1,14,0.00
2013-1-6,48,38,31,34,30,24,92,74,52,29.96,29.73,7,0,9,0.00
2013-1-7,48,38,31,33,29,26,82,72,50,30.14,29.82,7,0,10,0.00
2013-1-8,50,36,27,37,29,23,87,77,58,30.14,30.08,8,0,10,0.00
2013-1-9,50,39,28,40,34,26,93,83,69,30.12,29.90,8,0,9,0.00
2013-1-10,51,41,36,35,30,27,77,65,50,30.27,30.02,8,1,13,0.00
2013-1-11,45,40,32,42,34,26,94,81,68,30.25,29.82,5,0,5,0.00
2013-1-12,56,45,41,51,43,40,96,93,80,29.91,29.82,0,0,0,0.00
2013-1-13,48,45,42,47,44,41,96,96,95,29.89,29.73,1,0,1,0.00
2013-1-14,53,48,39,51,45,36,97,88,64,30.03,29.66,6,0,8,0.00
2013-1-15,39,36,33,37,32,29,94,85,75,30.08,29.93,5,0,7,0.00
2013-1-16,36,34,32,34,32,30,96,95,91,29.93,29.55,9,0,12,0.00
2013-1-17,42,38,34,35,32,29,95,80,70,29.84,29.67,10,1,11,0.00
2013-1-18,36,30,26,30,19,12,88,65,46,30.21,29.73,12,1,19,0.00
2013-1-19,55,38,26,33,27,15,82,64,42,30.13,29.67,12,2,18,0.00
2013-1-20,53,41,27,36,26,14,77,58,35,29.79,29.49,11,3,19,0.00
2013-1-21,32,27,21,22,15,11,79,62,51,29.84,29.60,12,0,16,0.00
2013-1-22,23,17,11,14,3,-1,68,54,41,29.97,29.61,10,4,18,0.00
2013-1-23,21,13,9,7,2,-2,78,62,49,30.01,29.89,8,1,11,0.00
2013-1-24,28,17,10,10,5,2,81,61,37,30.17,29.84,11,1,18,0.00
2013-1-25,22,15,11,14,6,1,89,68,50,30.18,29.80,10,0,12,0.00
2013-1-26,29,18,9,16,11,6,91,75,54,30.13,29.78,10,1,13,0.00
2013-1-27,36,22,11,21,14,7,84,71,52,30.28,30.12,7,0,11,0.00
2013-1-28,34,30,23,33,27,16,95,87,72,30.23,29.76,8,0,9,0.00
2013-1-29,52,43,34,47,41,2,96,92,84,29.88,29.75,0,0,0,0.00
2013-1-30,66,53,42,60,51,40,96,93,82,29.78,29.08,16,2,21,0.00
2013-1-31,61,42,27,60,32,13,96,70,48,29.58,28.84,18,6,37,0.00
2013-2-1,31,26,21,21,13,8,84,58,45,29.96,29.55,10,2,19,0.00
2013-2-2,28,23,15,21,14,6,89,67,47,30.04,29.76,6,1,10,0.00
2013-2-3,31,25,19,24,21,16,91,86,73,29.76,29.54,4,0,4,0.00
2013-2-4,30,25,19,22,14,11,80,65,54,29.76,29.65,8,1,12,0.00
2013-2-5,32,29,27,28,25,21,92,87,80,29.69,29.61,0,0,0,0.00
2013-2-6,40,31,25,29,25,16,94,80,58,30.08,29.65,10,1,14,0.00
2013-2-7,35,28,22,22,18,14,76,65,51,30.21,30.00,3,0,3,0.00
2013-2-8,34,32,-3,33,30,-5,95,91,73,30.00,29.43,10,1,14,0.00
2013-2-9,34,27,19,31,19,10,95,74,53,30.11,29.52,12,2,18,0.00
2013-2-10,46,26,13,22,14,9,83,63,34,30.21,30.03,6,0,11,0.00
2013-2-11,47,37,31,46,34,22,96,89,48,30.04,29.41,1,0,1,0.00
2013-2-12,45,38,30,32,28,24,78,67,57,29.73,29.57,8,2,14,0.00
2013-2-13,45,32,24,31,26,21,92,80,58,29.70,29.43,2,0,2,0.00
2013-2-14,48,37,29,36,30,27,95,80,57,29.75,29.46,6,0,6,0.00
2013-2-15,57,45,32,40,34,29,92,69,48,29.75,29.65,9,1,11,0.00
2013-2-16,39,33,28,32,27,14,94,79,55,29.73,29.51,9,1,14,0.00
2013-2-17,32,25,19,18,11,4,75,55,48,29.81,29.48,11,4,20,0.00
2013-2-18,36,26,17,18,12,5,64,55,43,30.04,29.81,9,2,17,0.00
2013-2-19,43,36,28,41,30,15,95,78,55,29.92,29.44,18,1,18,0.00
2013-2-20,34,28,23,27,17,12,76,63,54,29.78,29.51,10,4,16,0.00
2013-2-21,36,28,22,22,17,12,73,63,52,30.04,29.75,10,3,17,0.00
2013-2-22,38,30,20,29,22,14,85,73,60,30.13,29.96,5,0,5,0.00
2013-2-23,45,38,32,43,36,29,95,94,85,29.98,29.55,4,0,4,0.00
2013-2-24,46,37,28,39,31,21,96,81,64,29.77,29.52,10,1,21,0.00
2013-2-25,47,35,26,34,26,21,84,71,53,29.97,29.77,9,0,11,0.00
2013-2-26,46,36,26,35,30,22,94,80,62,29.98,29.52,11,1,14,0.00
2013-2-27,50,43,36,46,40,35,96,88,74,29.53,29.24,10,1,19,0.00
2013-2-28,46,40,33,38,34,28,88,77,55,29.41,29.32,9,1,11,0.00
2013-3-1,45,37,31,34,30,26,92,78,62,29.56,29.38,10,1,15,0.00
2013-3-2,42,34,30,30,25,22,78,70,58,29.56,29.47,12,2,14,0.00
2013-3-3,38,31,24,25,21,18,78,67,57,29.55,29.46,10,2,15,0.00
2013-3-4,42,33,28,26,22,18,75,64,52,29.69,29.55,10,3,17,0.00
2013-3-5,54,38,29,33,27,22,77,64,44,29.77,29.67,8,1,14,0.00
2013-3-6,40,37,33,36,32,27,92,84,75,29.69,29.51,14,2,25,0.04
2013-3-7,48,39,34,33,29,26,83,68,53,29.83,29.68,11,2,17,0.00
2013-3-8,43,35,29,33,29,25,92,80,66,29.97,29.78,12,3,20,0.04
2013-3-9,68,45,29,36,26,18,77,51,22,30.04,29.94,14,1,14,0.00
2013-3-10,62,49,34,37,34,27,85,60,37,30.09,29.99,8,0,9,0.00
2013-3-11,60,48,36,48,42,32,94,82,54,30.03,29.78,10,0,12,0.00
2013-3-12,57,50,39,56,48,34,96,91,82,29.79,29.42,14,2,24,0.04
2013-3-13,50,39,32,37,31,24,87,72,52,29.69,29.57,9,2,16,0.00
2013-3-14,41,34,26,24,20,14,89,59,42,29.74,29.65,11,3,19,0.00
2013-3-15,51,38,0,34,24,-13,67,57,46,29.75,29.47,9,1,13,0.00
2013-3-16,44,36,32,33,29,24,93,79,61,29.67,29.50,4,0,4,0.00
2013-3-17,42,32,26,30,25,20,93,75,56,30.03,29.65,8,0,9,0.04
2013-3-18,38,31,26,33,24,15,95,75,56,30.09,29.64,8,0,9,0.04
2013-3-19,51,40,34,43,33,22,96,79,48,29.64,29.44,9,1,17,0.00
2013-3-20,47,37,30,28,22,19,71,55,38,29.66,29.52,10,2,14,0.00
2013-3-21,40,32,27,28,22,14,91,67,46,29.57,29.40,9,1,12,0.00
2013-3-22,42,32,26,27,22,15,77,65,53,29.67,29.50,10,2,13,0.00
2013-3-23,49,37,29,30,23,20,71,58,42,29.70,29.60,10,2,17,0.00
2013-3-24,51,38,27,29,23,19,74,56,39,29.71,29.42,7,0,11,0.00
2013-3-25,37,35,32,34,30,26,95,86,65,29.44,29.22,12,0,19,0.09
2013-3-26,53,40,33,40,33,30,96,79,47,29.65,29.38,10,1,13,0.00
2013-3-27,53,40,31,35,32,29,93,74,47,29.77,29.64,11,1,19,0.00
2013-3-28,50,41,32,35,31,28,84,69,52,29.89,29.74,10,1,13,0.00
2013-3-29,55,43,32,37,31,26,80,63,47,29.92,29.83,8,1,13,0.00
2013-3-30,61,46,31,36,30,27,85,58,35,29.94,29.83,8,0,13,0.00
2013-3-31,57,46,37,46,37,28,96,73,45,29.87,29.45,8,0,15,0.03
2013-4-1,62,48,35,47,38,18,96,71,43,29.68,29.42,14,2,18,0.00
2013-4-2,45,36,29,24,19,16,60,49,36,29.85,29.68,10,2,16,0.00
2013-4-3,50,37,28,26,19,14,60,48,35,30.05,29.85,10,2,17,0.00
2013-4-4,56,40,26,30,22,14,65,50,34,30.14,29.82,8,1,10,0.00
2013-4-5,66,49,37,36,31,23,83,53,29,29.83,29.50,10,2,14,0.00
2013-4-6,60,44,31,31,24,18,68,47,26,30.05,29.76,10,1,13,0.00
2013-4-7,66,50,38,46,37,27,77,62,46,30.04,29.73,11,2,16,0.00
2013-4-8,82,64,50,55,49,43,80,61,38,29.83,29.70,8,1,13,0.00
2013-4-9,84,72,59,59,54,51,75,55,34,29.76,29.64,9,1,14,0.00
2013-4-10,88,72,61,66,58,54,95,64,44,29.69,29.52,14,1,25,0.09
2013-4-11,67,59,48,64,55,44,97,88,72,29.70,29.53,8,0,9,0.00
2013-4-12,48,44,42,44,42,41,96,94,85,29.68,29.43,9,1,12,0.00
2013-4-13,63,50,38,49,40,37,98,73,46,29.72,29.50,8,1,12,0.00
2013-4-14,63,52,39,42,38,32,87,60,41,29.91,29.71,9,1,16,0.00
2013-4-15,64,52,45,48,39,33,77,63,54,30.09,29.91,7,0,8,0.00
2013-4-16,72,59,45,60,51,42,89,76,61,30.08,29.86,10,1,14,0.00
2013-4-17,79,64,54,57,50,39,94,66,31,30.02,29.84,6,0,8,0.00
2013-4-18,61,55,51,56,50,42,94,83,69,30.04,29.80,5,0,6,0.06
2013-4-19,80,66,56,68,62,54,96,87,65,29.80,29.37,13,2,15,0.14
2013-4-20,58,50,42,46,36,28,95,61,42,30.07,29.54,12,2,16,0.00
2013-4-21,61,46,32,37,29,22,69,53,37,30.34,30.06,8,0,11,0.00
2013-4-22,55,45,33,39,34,28,83,66,47,30.35,30.18,8,0,11,0.00
2013-4-23,51,46,40,44,39,34,90,78,68,30.18,29.88,7,0,8,0.00
2013-4-24,74,57,39,59,50,37,94,77,57,29.88,29.55,9,0,13,0.00
2013-4-25,67,54,41,57,37,32,85,55,30,30.02,29.63,9,2,18,0.00
2013-4-26,69,54,41,44,36,31,78,52,31,30.17,30.02,8,0,10,0.00
2013-4-27,77,57,38,48,37,30,76,49,30,30.18,30.02,6,0,8,0.00
2013-4-28,73,59,46,47,40,35,77,52,35,30.05,29.92,9,0,11,0.00
2013-4-29,57,53,50,55,51,44,96,91,70,29.96,29.86,1,0,1,0.00
2013-4-30,71,58,47,54,46,33,97,69,36,30.06,29.91,10,0,11,0.00
2013-5-1,72,56,40,47,39,32,80,55,27,30.21,30.06,5,0,7,0.00
2013-5-2,82,59,41,52,44,38,94,63,32,30.20,30.06,5,0,6,0.00
2013-5-3,70,57,45,45,42,39,83,59,37,30.16,30.07,5,0,7,0.00
2013-5-4,75,56,40,51,44,37,94,67,36,30.11,29.94,6,0,8,0.00
2013-5-5,69,54,39,48,42,37,92,68,44,30.01,29.92,3,0,3,0.00
2013-5-6,72,56,42,57,49,38,93,79,58,29.99,29.86,5,0,7,0.00
2013-5-7,67,63,59,61,59,57,94,87,80,29.82,29.79,3,0,3,0.00
2013-5-8,74,62,58,65,59,55,97,90,68,29.80,29.67,6,0,6,0.00
2013-5-9,74,62,55,61,57,54,96,84,63,29.72,29.66,8,0,11,0.00
2013-5-10,85,69,54,66,59,53,96,74,42,29.76,29.65,9,0,13,0.00
2013-5-11,76,65,60,68,62,58,97,92,74,29.68,29.46,7,0,11,0.00
2013-5-12,63,58,44,58,44,31,94,65,36,29.72,29.46,11,2,17,0.00
2013-5-13,58,48,39,38,33,30,77,59,37,29.87,29.72,10,1,14,0.00
2013-5-14,66,49,33,40,34,31,91,60,33,29.91,29.78,9,0,10,0.00
2013-5-15,77,62,50,61,51,34,82,67,54,29.82,29.46,6,0,9,0.00
2013-5-16,85,69,57,69,60,54,95,76,44,29.62,29.47,5,0,7,0.00
2013-5-17,84,65,53,55,48,43,82,56,31,29.94,29.62,8,0,10,0.00
2013-5-18,69,60,55,56,53,46,94,77,62,30.02,29.94,6,0,7,0.00
2013-5-19,62,61,59,61,60,58,97,96,95,29.97,29.90,0,0,0,0.00
2013-5-20,82,68,57,71,64,56,98,87,69,29.91,29.73,6,0,6,0.00
2013-5-21,89,75,63,75,69,62,97,82,58,29.74,29.62,7,0,7,0.00
2013-5-22,92,77,67,76,71,66,96,82,53,29.68,29.58,7,0,8,0.00
2013-5-23,80,72,65,73,69,63,96,90,70,29.65,29.51,7,0,12,0.00
2013-5-24,65,54,44,63,51,39,98,90,75,29.78,29.47,10,2,20,0.00
2013-5-25,63,52,44,45,40,36,92,66,42,29.81,29.72,10,3,19,0.00
2013-5-26,73,58,45,49,41,36,73,55,34,29.96,29.78,9,2,15,0.00
2013-5-27,73,56,42,48,42,35,88,62,37,30.01,29.90,5,0,7,0.00
2013-5-29,86,78,74,70,68,67,86,71,57,29.85,29.78,1,0,1,0.00
2013-5-30,95,79,68,73,68,66,91,71,41,29.91,29.83,4,0,4,0.00
2013-5-31,96,78,70,68,66,63,89,70,38,29.89,29.77,6,0,8,0.00
2013-6-1,91,86,78,73,71,69,76,62,53,29.76,29.67,0,0,0,0.00
2013-6-2,88,83,74,74,72,70,89,70,62,29.67,29.56,6,1,9,0.00
2013-6-3,83,82,82,71,70,69,66,66,66,29.57,29.57,0,0,0,0.00
2013-6-4,77,77,76,56,55,54,49,46,43,29.78,29.78,0,0,0,0.00
2013-6-5,88,76,61,57,54,51,74,49,34,29.88,29.83,4,0,4,0.00
2013-6-6,76,63,54,63,57,50,97,81,47,29.88,29.71,29,1,29,0.00
2013-6-7,65,62,60,64,62,59,99,98,97,29.71,29.37,10,0,12,0.00
2013-6-8,80,68,59,70,63,11,99,84,61,29.83,29.37,6,0,7,0.00
2013-6-9,91,72,58,68,62,56,96,73,47,29.94,29.83,4,0,4,0.00
2013-6-10,71,69,65,70,67,63,98,94,81,29.90,29.53,6,0,10,0.00
2013-6-11,82,73,66,71,67,62,98,83,65,29.53,29.44,29,2,29,0.00
2013-6-12,84,75,65,67,63,60,87,67,50,29.60,29.54,9,2,12,0.00
2013-6-13,74,66,58,70,61,57,96,86,71,29.57,29.19,6,0,7,0.00
2013-6-14,80,60,54,62,55,52,97,88,51,29.59,29.28,9,1,10,0.00
2013-6-15,81,72,56,65,60,54,92,66,50,29.79,29.70,57,2,57,0.00
2013-6-16,85,71,60,69,62,54,92,74,49,29.76,29.57,7,0,10,0.00
2013-6-17,89,76,66,75,67,64,94,78,54,29.69,29.60,8,0,12,0.00
2013-6-18,79,68,64,72,66,63,98,94,77,29.67,29.56,4,0,4,0.00
2013-6-19,91,70,57,63,58,54,98,71,35,29.91,29.63,29,0,29,0.00
2013-6-20,87,70,56,64,58,51,93,67,44,30.02,29.91,5,0,6,0.00
2013-6-21,90,73,57,64,57,50,81,60,40,30.06,29.98,8,0,8,0.00
2013-6-22,90,74,58,72,63,54,92,72,52,30.02,29.87,7,0,8,0.00
2013-6-23,92,77,65,76,69,62,92,79,55,29.96,29.81,6,0,8,0.00
2013-6-24,95,80,72,78,71,66,96,77,50,29.85,29.74,7,0,8,0.00
2013-6-25,72,68,14,66,63,-11,90,86,81,29.78,29.72,0,0,0,0.00
2013-6-26,91,86,81,78,74,70,77,67,57,29.64,29.55,86,10,86,0.00
2013-6-28,77,77,77,71,71,71,82,82,82,29.31,29.31,0,0,0,0.00
2013-7-5,94,94,94,77,77,77,59,59,59,29.87,29.87,0,0,0,0.00
2013-7-6,100,90,81,79,76,74,80,64,49,29.91,29.80,7,0,8,0.00
2013-7-7,95,81,70,80,74,69,97,79,58,29.85,29.72,11,0,13,0.00
2013-7-8,88,76,68,75,70,67,98,85,60,29.83,29.76,4,0,8,0.00
2013-7-9,89,78,70,77,72,68,94,83,65,29.84,29.76,6,0,7,0.00
2013-7-10,91,80,74,77,75,71,95,83,64,29.78,29.58,7,0,9,0.00
2013-7-11,91,79,73,75,72,64,94,80,58,29.68,29.57,5,0,5,0.00
2013-7-12,76,72,69,70,66,62,98,84,70,29.80,29.67,5,0,8,0.00
2013-7-13,91,77,69,78,73,68,99,89,64,30.05,29.80,5,0,5,0.00
2013-7-14,96,82,73,79,75,71,99,81,53,30.11,30.01,6,0,8,0.00
2013-7-15,98,84,72,82,75,69,94,77,55,30.04,29.91,7,0,8,0.00
2013-7-16,103,85,73,80,74,70,93,72,46,29.98,29.90,8,0,9,0.00
2013-7-17,101,86,72,79,74,69,94,70,45,29.96,29.83,3,0,3,0.00
2013-7-18,101,87,76,82,76,71,88,72,52,29.85,29.73,4,0,7,0.00
2013-7-19,98,88,79,83,79,74,92,77,56,29.77,29.58,6,0,10,0.00
2013-7-20,93,83,76,80,74,70,83,74,56,29.62,29.52,8,0,10,0.00
2013-7-21,96,81,73,79,72,69,88,77,54,29.70,29.60,2,0,2,0.00
2013-7-22,90,77,72,81,73,69,98,89,70,29.70,29.53,3,0,3,0.00
2013-7-23,89,77,70,78,72,69,99,87,61,29.53,29.36,7,0,8,0.00
2013-7-24,88,75,64,71,66,55,93,76,50,29.70,29.40,7,0,12,0.00
2013-7-25,77,66,58,64,58,53,87,76,59,29.80,29.68,6,0,7,0.00
2013-7-26,88,72,59,67,62,57,95,72,45,29.81,29.76,7,0,10,0.00
2013-7-27,90,75,61,71,65,58,96,74,49,29.81,29.68,6,0,7,0.00
2013-7-28,84,73,66,76,69,63,96,87,73,29.73,29.64,7,0,8,0.00
2013-7-29,85,73,65,68,63,57,98,75,45,29.88,29.71,7,0,11,0.00
2013-7-30,85,70,58,67,60,56,92,73,47,29.95,29.87,8,0,9,0.00
2013-7-31,85,72,59,67,63,57,95,74,50,29.92,29.79,4,0,4,0.00
2013-8-1,75,69,66,74,67,63,98,93,81,29.79,29.58,2,0,2,0.00
2013-8-2,86,75,66,70,67,62,99,79,51,29.70,29.57,6,0,8,0.00
2013-8-3,80,70,66,70,65,61,94,85,70,29.70,29.63,5,0,5,0.00
2013-8-4,81,70,59,66,61,56,98,77,50,29.76,29.62,7,1,12,0.00
2013-8-5,81,67,54,61,56,52,93,71,47,29.84,29.75,6,0,8,0.00
2013-8-6,83,68,56,67,60,54,94,78,50,29.86,29.79,5,0,5,0.00
2013-8-7,77,71,66,70,67,63,95,89,77,29.87,29.80,5,0,5,0.00
2013-8-8,89,77,68,79,72,68,98,88,69,29.81,29.73,10,0,11,0.00
2013-8-9,86,78,74,79,75,72,96,91,78,29.76,29.58,8,0,9,0.00
2013-8-10,86,76,68,74,69,65,98,80,54,29.81,29.64,8,0,8,0.00
2013-8-11,88,74,61,70,64,58,95,73,51,29.89,29.77,4,0,4,0.00
2013-8-12,90,77,69,74,69,66,96,79,51,29.79,29.68,4,0,4,0.00
2013-8-13,84,73,65,74,69,64,98,89,68,29.68,29.47,4,0,4,0.00
2013-8-14,76,66,55,67,56,49,90,72,52,29.82,29.54,11,2,14,0.00
2013-8-15,84,66,51,60,55,50,95,72,40,29.91,29.82,5,0,6,0.00
2013-8-16,86,69,54,64,57,52,95,70,39,29.96,29.88,3,0,3,0.00
2013-8-17,86,70,57,65,59,55,95,71,44,30.02,29.96,2,0,2,0.00
2013-8-18,79,68,63,65,62,58,94,81,59,30.01,29.90,2,0,2,0.00
2013-8-19,79,69,60,69,64,59,96,86,69,29.91,29.81,4,0,4,0.00
2013-8-20,91,75,63,74,67,62,98,80,51,29.90,29.82,3,0,3,0.00
2013-8-21,92,77,64,73,68,62,96,76,46,29.95,29.81,2,0,2,0.00
2013-8-22,85,76,70,76,72,68,96,89,72,29.83,29.65,7,0,14,0.00
2013-8-23,86,71,64,71,65,59,97,82,59,29.86,29.67,4,0,6,0.00
2013-8-24,86,71,59,64,57,53,86,65,38,30.10,29.86,5,0,7,0.00
2013-8-25,84,68,53,64,57,52,96,72,45,30.17,30.00,7,0,7,0.00
2013-8-26,87,74,63,72,64,57,86,72,53,30.01,29.69,7,0,8,0.00
2013-8-27,94,79,69,74,70,66,91,75,53,29.70,29.63,7,0,11,0.00
2013-8-28,73,71,69,72,70,67,98,96,89,29.66,29.59,0,0,0,0.00
2013-8-29,85,74,70,75,71,66,99,89,67,29.79,29.63,1,0,1,0.00
2013-8-30,85,74,67,75,70,65,95,86,72,29.79,29.63,5,0,6,0.00
2013-8-31,90,78,70,78,73,69,96,85,66,29.65,29.55,6,0,9,0.00
2013-9-1,92,79,71,80,73,70,98,85,58,29.61,29.53,5,0,7,0.00
2013-9-2,89,76,71,76,73,68,98,90,67,29.55,29.46,5,0,5,0.00
2013-9-3,83,73,63,71,65,57,97,78,52,29.68,29.47,9,1,10,0.00
2013-9-4,82,69,57,67,60,55,94,74,50,29.80,29.66,6,0,9,0.00
2013-9-5,82,68,58,68,58,49,89,70,41,29.90,29.72,6,0,10,0.00
2013-9-6,78,62,48,54,48,44,87,64,37,30.01,29.89,5,0,8,0.00
2013-9-7,82,64,47,61,52,45,94,70,41,29.89,29.67,3,0,3,0.00
2013-9-8,86,70,58,70,61,48,92,73,50,29.84,29.61,8,0,11,0.00
2013-9-9,78,64,49,64,55,45,87,73,54,29.98,29.83,5,0,5,0.00
2013-9-10,90,77,67,78,71,63,93,82,65,29.93,29.82,4,0,7,0.00
2013-9-11,96,82,73,81,75,71,96,79,56,29.89,29.75,7,0,10,0.00
2013-9-12,91,77,68,77,72,67,97,85,64,29.76,29.48,6,0,11,0.00
2013-9-13,78,67,55,68,61,50,98,81,55,29.65,29.42,9,1,13,0.00
2013-9-14,66,56,47,54,49,45,93,78,59,29.90,29.65,8,1,15,0.00
2013-9-15,77,58,43,57,50,42,96,76,47,29.98,29.84,4,0,4,0.00
2013-9-16,75,62,53,63,56,49,96,83,57,29.99,29.79,8,0,10,0.00
2013-9-17,72,55,42,49,44,40,93,69,40,30.17,29.99,7,0,8,0.00
2013-9-18,76,57,42,53,46,40,94,71,38,30.10,29.94,3,0,3,0.00
2013-9-19,81,62,47,62,52,45,95,75,45,29.95,29.83,4,0,4,0.00
2013-9-20,84,66,52,66,57,50,96,77,48,29.84,29.72,3,0,3,0.00
2013-9-21,82,67,52,66,60,51,97,81,49,29.75,29.44,8,0,10,0.00
2013-9-22,73,61,51,61,53,45,99,79,50,29.69,29.44,11,1,13,0.00
2013-9-23,69,56,45,52,46,41,88,70,49,29.81,29.68,10,1,12,0.00
2013-9-24,75,56,40,57,47,38,94,75,47,29.83,29.66,6,0,8,0.00
2013-9-25,79,59,44,55,49,42,91,72,43,29.73,29.63,5,0,5,0.00
2013-9-26,78,61,48,62,54,46,95,80,55,29.84,29.68,6,0,7,0.00
2013-9-27,76,62,52,60,54,50,95,79,52,30.01,29.84,3,0,3,0.00
2013-9-28,78,63,52,60,53,50,95,75,44,30.07,29.98,5,0,5,0.00
2013-9-29,78,60,47,60,53,46,96,79,50,29.98,29.82,6,0,8,0.00
2013-9-30,78,59,47,60,52,46,96,80,48,29.84,29.74,3,0,3,0.00
2013-10-1,82,65,52,67,58,50,95,79,54,29.79,29.69,8,0,11,0.00
2013-10-2,86,69,56,68,61,55,96,78,51,29.79,29.70,8,0,10,0.00
2013-10-3,85,70,57,66,62,55,95,77,50,29.88,29.79,0,0,0,0.00
2013-10-4,88,73,62,72,66,60,97,80,54,29.83,29.74,5,0,7,0.00
2013-10-5,92,75,63,72,67,62,96,80,51,29.84,29.75,0,0,0,0.00
2013-10-6,81,69,65,72,67,64,97,91,72,29.82,29.72,4,0,4,0.00
2013-10-7,78,65,53,72,63,49,97,93,82,29.76,29.50,12,1,16,0.00
2013-10-8,70,56,46,53,48,44,95,78,51,30.06,29.76,8,0,11,0.00
2013-10-9,62,55,47,51,48,42,86,78,67,30.11,29.99,7,0,12,0.00
2013-10-10,58,55,50,57,53,48,98,93,82,30.00,29.76,7,0,10,0.00
2013-10-11,62,60,56,61,58,55,98,97,92,29.81,29.71,10,0,14,0.00
2013-10-12,74,64,57,60,54,46,94,73,49,29.97,29.79,8,0,10,0.00
2013-10-13,69,60,12,56,52,9,92,76,56,30.11,29.97,6,0,8,0.00
2013-10-14,74,57,46,58,50,44,96,82,50,30.10,29.98,1,0,1,0.00
2013-10-15,77,58,45,61,49,44,97,77,47,30.00,29.85,4,0,4,0.00
2013-10-16,68,59,49,62,56,46,95,90,78,29.85,29.67,0,0,0,0.00
2013-10-17,76,65,60,66,62,58,96,89,68,29.67,29.46,6,0,11,0.00
2013-10-18,67,57,47,61,48,42,88,72,54,29.75,29.49,11,2,15,0.00
2013-10-19,66,53,42,54,47,40,95,82,54,29.75,29.52,5,0,9,0.00
2013-10-20,63,51,43,52,42,38,96,72,47,29.82,29.54,8,1,11,0.00
2013-10-21,70,53,39,48,42,36,92,70,40,29.89,29.71,8,0,9,0.00
2013-10-22,64,53,43,54,47,34,94,80,65,29.72,29.53,5,0,11,0.00
2013-10-23,61,46,39,45,38,34,87,74,55,29.58,29.37,8,0,11,0.00
2013-10-24,52,42,35,38,33,29,92,73,49,29.79,29.54,7,1,13,0.00
2013-10-25,56,42,33,40,33,29,87,72,48,29.99,29.79,12,1,13,0.00
2013-10-26,57,44,32,37,33,29,87,66,44,29.99,29.65,9,0,14,0.00
2013-10-27,59,48,39,41,35,32,77,62,43,29.88,29.63,7,0,11,0.00
2013-10-28,64,46,33,45,36,30,89,70,45,30.04,29.88,6,0,7,0.00
2013-10-29,65,49,39,47,39,33,90,70,45,30.14,30.04,3,0,3,0.00
2013-10-30,63,50,40,55,46,38,93,88,75,30.09,29.92,0,0,0,0.00
2013-10-31,66,58,49,62,56,47,97,91,79,29.97,29.53,7,1,11,0.00
2013-11-1,71,63,53,64,59,51,96,87,65,29.54,29.32,13,1,26,0.00
2013-11-2,69,56,47,54,48,40,96,76,52,29.55,29.39,6,0,8,0.00
2013-11-3,57,44,30,42,34,21,89,68,43,30.19,29.55,9,1,14,0.00
2013-11-4,52,36,25,27,22,20,80,60,33,30.38,30.19,6,0,11,0.00
2013-11-5,60,46,32,46,37,25,87,71,57,30.36,30.21,2,0,2,0.00
2013-11-6,68,55,46,53,48,42,90,78,55,30.22,29.81,6,0,7,0.00
2013-11-7,60,52,41,57,50,36,95,91,78,29.81,29.55,10,0,15,0.00
2013-11-8,50,41,35,37,31,27,83,69,52,30.00,29.73,10,1,18,0.00
2013-11-9,54,41,31,36,30,26,82,67,43,30.05,29.73,7,0,12,0.00
2013-11-10,58,46,38,41,34,30,81,62,45,29.87,29.63,10,2,17,0.00
2013-11-11,57,46,34,39,33,27,76,61,45,29.99,29.72,8,1,11,0.00
2013-11-12,49,36,24,38,25,16,83,65,51,30.07,29.69,14,2,16,0.00
2013-11-13,45,31,22,23,19,14,71,60,42,30.14,30.04,12,1,17,0.00
2013-11-14,55,40,29,28,22,19,73,51,26,30.04,29.93,7,1,13,0.00
2013-11-15,60,45,34,37,32,26,81,61,35,30.00,29.90,3,0,3,0.00
2013-11-16,64,50,42,49,44,33,94,81,57,30.07,29.98,3,0,3,0.00
2013-11-17,69,57,49,59,53,47,95,87,67,30.00,29.51,8,0,10,0.00
2013-11-18,65,58,47,61,43,29,96,61,36,29.60,29.39,12,2,21,0.00
2013-11-19,50,42,30,33,28,22,71,58,48,30.09,29.60,12,2,23,0.00
2013-11-20,51,36,27,26,20,11,77,55,30,30.32,30.09,6,0,7,0.00
2013-11-21,56,41,28,41,30,15,78,66,53,30.32,30.13,4,0,6,0.00
2013-11-22,56,51,48,50,47,41,96,87,78,30.13,29.70,5,0,7,0.00
2013-11-23,50,39,27,48,29,14,95,68,51,29.83,29.70,13,3,18,0.00
2013-11-24,32,24,20,14,7,4,59,48,36,30.16,29.82,11,4,20,0.00
2013-11-25,38,27,18,18,14,8,77,60,43,30.25,30.06,11,1,13,0.00
2013-11-26,46,34,30,45,28,18,97,79,60,30.07,29.39,6,0,6,0.00
2013-11-27,61,41,30,60,38,21,98,91,69,29.59,29.16,11,3,21,0.00
2013-11-28,37,30,26,22,20,17,71,66,52,30.20,29.58,10,2,18,0.00
2013-11-29,42,30,22,27,21,17,85,70,51,30.45,30.19,8,0,13,0.00
2013-11-30,42,30,20,29,22,14,81,72,60,30.45,30.10,4,0,4,0.00
2013-12-1,49,37,26,34,29,24,91,75,54,30.10,29.76,3,0,3,0.00
2013-12-2,56,42,36,40,33,30,82,74,54,29.76,29.61,0,0,0,0.00
2013-12-3,54,43,38,43,36,33,90,77,54,29.75,29.63,4,0,4,0.00
2013-12-4,55,44,34,44,39,31,92,81,65,29.85,29.74,1,0,1,0.00
2013-12-5,58,52,47,57,51,44,97,95,88,29.84,29.67,8,0,9,0.00
2013-12-6,61,47,35,60,46,34,98,97,96,29.90,29.62,9,0,15,0.00
2013-12-7,41,34,28,34,30,23,97,88,72,30.25,29.83,9,1,15,0.00
2013-12-8,29,26,23,27,22,18,95,84,69,30.31,30.05,5,0,5,0.00
2013-12-9,34,33,28,34,32,27,98,96,95,30.05,29.72,6,0,7,0.00
2013-12-10,32,30,22,32,28,18,97,94,83,29.91,29.66,7,0,8,0.00
2013-12-11,33,24,17,21,18,14,89,76,58,30.09,29.90,10,0,11,0.00
2013-12-12,28,21,17,20,13,7,90,71,50,30.11,29.90,10,1,13,0.00
2013-12-13,35,27,17,20,15,7,73,62,52,30.06,29.88,9,1,12,0.00
2013-12-14,31,27,24,30,23,20,95,85,69,30.15,29.44,9,0,13,0.00
2013-12-15,38,32,27,33,28,22,96,86,68,29.61,29.30,8,1,15,0.00
2013-12-16,30,24,18,24,14,11,81,66,50,29.96,29.60,9,1,14,0.00
2013-12-17,30,24,19,26,20,15,92,86,69,29.94,29.67,3,0,3,0.00
2013-12-18,35,26,18,25,20,15,93,79,63,29.94,29.68,9,0,13,0.00
2013-12-19,49,34,23,32,26,19,88,73,51,29.94,29.78,4,0,4,0.00
2013-12-20,55,45,37,43,34,30,82,67,48,29.84,29.71,7,0,8,0.02
2013-12-21,68,54,41,57,49,39,96,84,66,29.75,29.64,8,0,10,0.00
2013-12-22,67,63,59,63,60,56,94,90,85,29.72,29.55,11,2,19,0.00
2013-12-23,60,53,39,58,51,33,98,93,79,29.91,29.65,10,1,13,0.00
2013-12-24,40,32,24,33,23,14,81,71,61,30.12,29.87,9,2,16,0.00
2013-12-25,30,23,17,16,12,8,71,63,50,30.27,30.12,8,0,12,0.00
2013-12-26,38,28,20,31,22,15,88,81,66,30.13,29.91,6,0,10,0.00
2013-12-27,45,31,22,28,22,18,89,72,46,30.11,30.01,9,0,11,0.00
2013-12-28,59,42,30,34,28,22,74,58,39,30.03,29.83,7,1,11,0.00
2013-12-29,44,41,38,41,35,29,97,82,57,29.83,29.20,6,0,8,0.00
2013-12-30,43,36,22,39,30,15,95,80,66,29.91,29.49,9,1,12,0.00
2013-12-31,34,26,20,28,17,13,81,70,58,30.04,29.79,9,1,15,0.00
2014-1-1,38,28,20,25,19,12,77,70,59,30.14,29.92,3,0,4,0.00
2014-1-2,30,26,16,25,22,14,92,85,73,29.92,29.38,6,0,11,0.00